Location: Białystok
(53.1343°N, 23.1544°E)
Time: 23:12:29
(UTC+01:00)

ISS - Pass Details

Date: 29 January 2019
Orbit: 403 x 411 km, 51.6° (Epoch: 16 February)

Event Time Altitude Azimuth Distance (km) Brightness Sun altitude
Rises 16:41:52 0° 229° (SW) 2,326 1.7 -5.8°
Reaches altitude 10° 16:44:04 10° 218° (SW) 1,470 0.1 -6.1°
Maximum altitude 16:47:01 31° 155° (SSE) 744 -2.5 -6.5°
Drops below altitude 10° 16:50:00 10° 91° (E) 1,480 -1.6 -6.9°
Enters shadow 16:50:23 - 88° (E) 1,619 -1.4 -7.0°
